�������l�o���
Date,Time,MP-1(��Sv/h),MP-2(��Sv/h),MP-3(��Sv/h),MP-4(��Sv/h),MP-5(��Sv/h),MP-6(��Sv/h),MP-7(��Sv/h),MP-8(��Sv/h),����,����(m/s),���J
2020/12/04,00:00,0.670,0.966,0.612,1.210,0.853,0.381,0.674,0.635,�k��,7.6,��
2020/12/04,00:10,0.668,0.965,0.610,1.210,0.853,0.383,0.675,0.636,�k�k��,8.2,��
2020/12/04,00:20,0.669,0.967,0.611,1.209,0.853,0.382,0.675,0.636,�k��,8.9,��
2020/12/04,00:30,0.669,0.965,0.612,1.210,0.852,0.382,0.674,0.637,�k��,7.7,��
2020/12/04,00:40,0.668,0.966,0.608,1.211,0.855,0.382,0.675,0.635,�k��,8.1,��
2020/12/04,00:50,0.669,0.964,0.610,1.212,0.853,0.381,0.676,0.635,�k��,9.0,��
2020/12/04,01:00,0.668,0.966,0.611,1.210,0.853,0.382,0.675,0.635,�k��,10.2,��
2020/12/04,01:10,0.671,0.964,0.609,1.211,0.854,0.383,0.675,0.636,�k��,13.0,��
2020/12/04,01:20,0.670,0.966,0.611,1.211,0.850,0.382,0.678,0.635,�k��,10.6,��
2020/12/04,01:30,0.670,0.966,0.610,1.211,0.853,0.382,0.678,0.635,�k��,11.9,��
2020/12/04,01:40,0.670,0.965,0.609,1.210,0.855,0.382,0.677,0.635,�k��,12.4,��
2020/12/04,01:50,0.671,0.964,0.609,1.213,0.855,0.383,0.676,0.636,�k��,11.3,��
2020/12/04,02:00,0.670,0.966,0.610,1.211,0.854,0.382,0.677,0.637,�k��,10.2,��
2020/12/04,02:10,0.671,0.966,0.610,1.213,0.853,0.382,0.677,0.635,�k��,14.2,��
2020/12/04,02:20,0.668,0.966,0.610,1.212,0.853,0.383,0.677,0.634,�k��,13.6,��
2020/12/04,02:30,0.670,0.965,0.609,1.211,0.854,0.383,0.676,0.638,�k��,10.9,��
2020/12/04,02:40,0.669,0.964,0.610,1.213,0.853,0.382,0.676,0.634,�k��,10.0,��
2020/12/04,02:50,0.670,0.966,0.610,1.213,0.854,0.383,0.676,0.637,���k��,9.4,��
2020/12/04,03:00,0.669,0.967,0.611,1.213,0.853,0.382,0.675,0.635,���k��,8.7,��
2020/12/04,03:10,0.670,0.966,0.611,1.214,0.851,0.382,0.676,0.635,���k��,8.0,��
2020/12/04,03:20,0.671,0.966,0.612,1.209,0.854,0.383,0.678,0.635,�k��,6.9,��
2020/12/04,03:30,0.668,0.968,0.611,1.212,0.854,0.383,0.677,0.636,�k��,7.3,��
2020/12/04,03:40,0.671,0.965,0.610,1.211,0.855,0.381,0.676,0.635,�k��,8.4,��
2020/12/04,03:50,0.670,0.965,0.612,1.214,0.855,0.383,0.676,0.635,�k��,7.6,��
2020/12/04,04:00,0.670,0.964,0.611,1.211,0.853,0.384,0.676,0.637,�k��,7.5,��
2020/12/04,04:10,0.669,0.965,0.610,1.213,0.852,0.380,0.676,0.635,�k��,7.3,��
2020/12/04,04:20,0.670,0.964,0.610,1.213,0.852,0.382,0.675,0.636,�k��,7.2,��
2020/12/04,04:30,0.669,0.966,0.612,1.210,0.852,0.383,0.675,0.635,�k��,7.5,��
2020/12/04,04:40,0.670,0.965,0.610,1.211,0.853,0.383,0.676,0.636,�k��,7.1,��
2020/12/04,04:50,0.671,0.964,0.610,1.213,0.853,0.382,0.675,0.634,�k��,7.4,��
2020/12/04,05:00,0.669,0.965,0.610,1.211,0.853,0.383,0.675,0.635,�k��,6.9,��
2020/12/04,05:10,0.671,0.965,0.610,1.212,0.852,0.381,0.675,0.635,�k��,5.1,��
2020/12/04,05:20,0.669,0.965,0.610,1.211,0.854,0.383,0.675,0.635,�k��,5.2,��
2020/12/04,05:30,0.670,0.966,0.609,1.208,0.853,0.381,0.675,0.634,�k��,4.3,��
2020/12/04,05:40,0.670,0.965,0.611,1.211,0.852,0.383,0.675,0.635,���k��,3.9,��
2020/12/04,05:50,0.668,0.963,0.608,1.210,0.854,0.379,0.674,0.634,��,3.6,��
2020/12/04,06:00,0.670,0.966,0.609,1.210,0.853,0.380,0.675,0.634,��,3.7,��
2020/12/04,06:10,0.669,0.967,0.611,1.214,0.851,0.381,0.675,0.636,���k��,3.7,��
2020/12/04,06:20,0.670,0.964,0.610,1.209,0.851,0.381,0.676,0.635,���k��,2.8,��
2020/12/04,06:30,0.669,0.965,0.610,1.212,0.853,0.380,0.674,0.636,���k��,3.1,��
2020/12/04,06:40,0.669,0.964,0.609,1.213,0.852,0.381,0.672,0.633,��,2.6,��
2020/12/04,06:50,0.669,0.965,0.610,1.209,0.853,0.381,0.674,0.634,��,2.3,��
2020/12/04,07:00,0.667,0.964,0.610,1.210,0.852,0.380,0.673,0.633,��,2.0,��
2020/12/04,07:10,0.669,0.965,0.608,1.209,0.852,0.381,0.675,0.636,��,2.5,��
2020/12/04,07:20,0.669,0.963,0.608,1.212,0.852,0.380,0.675,0.632,���k��,3.2,��
2020/12/04,07:30,0.670,0.964,0.610,1.213,0.851,0.381,0.672,0.636,��,3.7,��
2020/12/04,07:40,0.669,0.965,0.611,1.211,0.852,0.381,0.673,0.634,��,4.1,��
2020/12/04,07:50,0.669,0.962,0.608,1.211,0.852,0.381,0.674,0.634,��,4.5,��
2020/12/04,08:00,0.670,0.963,0.608,1.212,0.854,0.382,0.673,0.635,��,4.2,��
2020/12/04,08:10,0.671,0.964,0.610,1.211,0.854,0.381,0.674,0.633,���k��,3.7,��
2020/12/04,08:20,0.669,0.963,0.609,1.212,0.850,0.381,0.676,0.634,���k��,3.2,��
2020/12/04,08:30,0.668,0.962,0.610,1.213,0.851,0.381,0.675,0.635,��,2.8,��
2020/12/04,08:40,0.667,0.963,0.611,1.212,0.853,0.381,0.675,0.635,��,3.0,��
2020/12/04,08:50,0.668,0.962,0.609,1.212,0.852,0.380,0.675,0.635,��,2.6,��
2020/12/04,09:00,0.670,0.963,0.610,1.211,0.852,0.381,0.677,0.636,��,2.6,��
2020/12/04,09:10,0.670,0.962,0.610,1.213,0.853,0.382,0.676,0.634,��,2.6,��
2020/12/04,09:20,0.669,0.961,0.610,1.212,0.853,0.381,0.675,0.634,��,2.8,��
2020/12/04,09:30,0.670,0.962,0.610,1.212,0.853,0.383,0.676,0.635,��,2.0,��
2020/12/04,09:40,0.672,0.964,0.611,1.212,0.855,0.381,0.675,0.635,��,1.9,��
2020/12/04,09:50,0.670,0.964,0.612,1.215,0.854,0.382,0.675,0.634,�k��,2.0,��
2020/12/04,10:00,0.671,0.965,0.610,1.211,0.854,0.381,0.673,0.635,�k��,5.0,��
2020/12/04,10:10,0.670,0.960,0.611,1.213,0.855,0.383,0.675,0.635,�k��,6.0,��
2020/12/04,10:20,0.670,0.962,0.612,1.212,0.854,0.382,0.674,0.635,�k��,6.2,��
2020/12/04,10:30,0.669,0.961,0.610,1.210,0.851,0.381,0.675,0.634,���k��,7.5,��
2020/12/04,10:40,-,0.959,0.612,1.211,0.856,0.381,0.674,0.635,���k��,7.5,��
2020/12/04,10:50,-,0.958,0.612,1.213,0.851,0.382,0.674,0.635,�k��,7.4,��
2020/12/04,11:00,-,0.960,0.612,1.212,0.857,0.381,0.675,0.635,���k��,5.3,��
2020/12/04,11:10,-,0.962,0.613,1.211,0.853,0.382,0.674,0.635,���k��,6.4,��
2020/12/04,11:20,-,0.963,0.613,1.212,0.857,0.381,0.673,0.634,���k��,6.1,��
2020/12/04,11:30,-,0.960,0.612,1.212,0.857,0.383,0.673,0.635,���k��,5.2,��
2020/12/04,11:40,-,0.965,0.611,1.212,0.857,0.383,0.673,0.635,���k��,5.9,��
2020/12/04,11:50,-,0.966,0.611,1.212,0.857,0.380,0.673,0.638,���k��,4.8,��
2020/12/04,12:00,-,0.967,0.612,1.214,0.856,0.382,0.674,0.638,���k��,3.9,��
2020/12/04,12:10,0.672,0.966,0.614,1.215,0.856,0.383,0.674,0.635,���k��,4.7,��
2020/12/04,12:20,0.671,0.967,0.613,1.213,0.856,0.382,0.675,0.636,�k��,5.0,��
2020/12/04,12:30,0.674,0.968,0.613,1.213,0.858,0.381,0.676,0.636,�k��,6.2,��
2020/12/04,12:40,0.674,0.965,0.615,1.211,0.855,0.383,0.675,0.635,�k��,6.6,��
2020/12/04,12:50,0.674,0.967,0.611,1.215,0.857,0.383,0.675,0.635,���k��,6.1,��
2020/12/04,13:00,0.671,0.967,0.611,1.214,0.856,0.383,0.675,0.636,���k��,6.4,��
2020/12/04,13:10,0.672,0.967,0.612,1.215,0.856,0.382,0.676,0.636,���k��,6.0,��
2020/12/04,13:20,0.674,0.969,0.611,1.214,0.856,0.383,0.675,0.635,���k��,6.9,��
2020/12/04,13:30,0.672,0.966,0.611,1.216,0.857,0.383,0.674,0.638,���k��,6.0,��
2020/12/04,13:40,0.671,0.965,0.614,1.214,0.855,0.383,0.677,0.637,���k��,5.5,��
2020/12/04,13:50,0.673,0.965,0.612,1.215,0.857,0.382,0.676,0.635,��,5.2,��
2020/12/04,14:00,0.673,0.967,0.612,1.214,0.856,0.383,0.675,0.637,��,2.8,��
2020/12/04,14:10,0.673,0.967,0.612,1.216,0.858,0.382,0.675,0.636,��,3.6,��
2020/12/04,14:20,0.675,0.968,0.613,1.215,0.857,0.382,0.676,0.638,���쐼,2.8,��
2020/12/04,14:30,0.672,0.968,0.612,1.214,0.855,0.383,0.675,0.637,�쐼,3.7,��
2020/12/04,14:40,0.672,0.967,0.614,1.216,0.856,0.383,0.678,0.637,�쐼,3.1,��
2020/12/04,14:50,0.663,0.967,0.615,1.215,0.857,0.382,0.677,0.637,���쐼,3.3,��
2020/12/04,15:00,0.669,0.967,0.612,1.215,0.858,0.382,0.676,0.637,���쐼,3.3,��
2020/12/04,15:10,0.671,0.967,0.614,1.214,0.857,0.382,0.678,0.636,���k��,2.6,��
2020/12/04,15:20,0.664,0.969,0.614,1.216,0.859,0.383,0.677,0.638,�k�k��,4.2,��
2020/12/04,15:30,0.669,0.969,0.614,1.215,0.857,0.382,0.676,0.636,�k�k��,4.4,��
2020/12/04,15:40,0.670,0.967,0.613,1.215,0.857,0.383,0.675,0.637,�k�k��,4.5,��
2020/12/04,15:50,0.672,0.967,0.611,1.216,0.859,0.382,0.677,0.636,�k��,4.5,��
2020/12/04,16:00,0.672,0.968,0.612,1.217,0.856,0.382,0.675,0.635,�k��,5.8,��
2020/12/04,16:10,0.672,0.967,0.612,1.215,0.859,0.383,0.674,0.636,�k��,6.0,��
2020/12/04,16:20,0.673,0.967,0.613,1.214,0.856,0.382,0.675,0.635,�k��,6.3,��
2020/12/04,16:30,0.670,0.969,0.613,1.214,0.855,0.383,0.676,0.637,�k��,6.6,��
2020/12/04,16:40,0.674,0.970,0.612,1.214,0.856,0.382,0.675,0.632,�k��,6.3,��
2020/12/04,16:50,0.671,0.969,0.612,1.213,0.856,0.384,0.675,0.636,���k��,5.8,��
2020/12/04,17:00,0.672,0.968,0.612,1.215,0.857,0.382,0.675,0.635,�k��,4.9,��
2020/12/04,17:10,0.673,0.967,0.613,1.216,0.856,0.382,0.676,0.636,�k��,5.1,��
2020/12/04,17:20,0.673,0.970,0.611,1.216,0.858,0.382,0.676,0.636,�k��,6.2,��
2020/12/04,17:30,0.672,0.968,0.612,1.213,0.857,0.382,0.677,0.634,�k��,4.0,��
2020/12/04,17:40,0.670,0.967,0.613,1.214,0.857,0.381,0.676,0.636,�k��,1.5,��
2020/12/04,17:50,0.670,0.969,0.613,1.214,0.858,0.382,0.675,0.636,���k��,2.8,��
2020/12/04,18:00,0.672,0.969,0.613,1.215,0.857,0.382,0.677,0.635,��,3.2,��
2020/12/04,18:10,0.671,0.968,0.612,1.218,0.857,0.383,0.676,0.634,���k��,3.7,��
2020/12/04,18:20,0.671,0.969,0.612,1.215,0.857,0.382,0.674,0.635,���k��,5.1,��
2020/12/04,18:30,0.670,0.968,0.612,1.214,0.857,0.383,0.675,0.636,���k��,5.6,��
2020/12/04,18:40,0.671,0.967,0.611,1.212,0.856,0.381,0.675,0.635,�k��,4.9,��
2020/12/04,18:50,0.673,0.970,0.612,1.215,0.856,0.383,0.675,0.636,���k��,4.9,��
2020/12/04,19:00,0.671,0.969,0.611,1.214,0.856,0.381,0.674,0.634,���k��,4.6,��
2020/12/04,19:10,0.671,0.968,0.611,1.214,0.857,0.383,0.676,0.636,���k��,3.7,��
2020/12/04,19:20,0.670,0.965,0.612,1.214,0.857,0.381,0.675,0.635,�k��,3.0,��
2020/12/04,19:30,0.670,0.966,0.610,1.213,0.857,0.381,0.674,0.636,�k��,3.7,��
2020/12/04,19:40,0.671,0.968,0.612,1.214,0.855,0.381,0.674,0.635,���k��,4.3,��
2020/12/04,19:50,0.670,0.970,0.613,1.217,0.855,0.381,0.675,0.633,���k��,4.3,��
2020/12/04,20:00,0.672,0.969,0.612,1.212,0.856,0.381,0.673,0.635,���k��,4.1,��
2020/12/04,20:10,0.671,0.968,0.613,1.214,0.855,0.382,0.675,0.636,�k��,4.8,��
2020/12/04,20:20,0.670,0.969,0.612,1.215,0.854,0.383,0.676,0.635,�k��,6.1,��
2020/12/04,20:30,0.670,0.968,0.612,1.216,0.854,0.381,0.673,0.635,�k�k��,5.3,��
2020/12/04,20:40,0.671,0.969,0.612,1.213,0.857,0.381,0.675,0.634,�k�k��,4.9,��
2020/12/04,20:50,0.669,0.970,0.613,1.214,0.854,0.382,0.675,0.634,�k�k��,5.8,��
2020/12/04,21:00,0.671,0.968,0.612,1.214,0.857,0.384,0.675,0.633,�k�k��,5.7,��
2020/12/04,21:10,0.669,0.968,0.612,1.216,0.855,0.381,0.676,0.635,�k��,3.7,��
2020/12/04,21:20,0.671,0.968,0.612,1.215,0.858,0.381,0.675,0.635,���k��,2.8,��
2020/12/04,21:30,0.671,0.966,0.612,1.211,0.858,0.382,0.675,0.634,���k��,3.8,��
2020/12/04,21:40,0.670,0.969,0.613,1.214,0.856,0.382,0.675,0.635,���k��,3.4,��
2020/12/04,21:50,0.672,0.968,0.610,1.214,0.856,0.382,0.675,0.635,��,3.4,��
2020/12/04,22:00,0.671,0.967,0.612,1.215,0.858,0.381,0.674,0.634,��,4.2,��
2020/12/04,22:10,0.671,0.968,0.612,1.215,0.857,0.381,0.676,0.634,���k��,4.0,��
2020/12/04,22:20,0.670,0.969,0.612,1.215,0.855,0.382,0.674,0.633,�k��,0.9,��
2020/12/04,22:30,0.672,0.969,0.612,1.215,0.856,0.381,0.675,0.635,-,CALM,��
2020/12/04,22:40,0.670,0.968,0.611,1.213,0.857,0.382,0.674,0.634,��,1.7,��
2020/12/04,22:50,0.671,0.968,0.611,1.213,0.856,0.382,0.675,0.634,���k��,3.0,��
2020/12/04,23:00,0.669,0.970,0.613,1.214,0.855,0.381,0.673,0.637,���k��,3.3,��
2020/12/04,23:10,0.671,0.967,0.611,1.212,0.858,0.381,0.675,0.635,���k��,4.2,��
2020/12/04,23:20,0.671,0.966,0.613,1.215,0.858,0.382,0.675,0.634,�k��,4.0,��
2020/12/04,23:30,0.671,0.969,0.610,1.215,0.856,0.382,0.675,0.634,�k��,3.3,��
2020/12/04,23:40,0.669,0.967,0.614,1.215,0.856,0.382,0.674,0.634,���k��,2.9,��
2020/12/04,23:50,0.671,0.970,0.614,1.213,0.857,0.382,0.675,0.635,��,2.0,��
